Location: The Jewett Observatory
(46.7288°N, 117.1525°W)
Time: 01:08:00
(UTC-07:00)

Amateur Radio Satellites - All Passes

Search period start: 26 June 2016 00:38
Search period end: 27 June 2016 00:38
Location: The Jewett Observatory, 46.7288°N, 117.1525°W

Satellite Date Start Highest point End Downlink Frequencies (MHz)
Time Altitude Azimuth
TIGRISAT 26 Jun 00:42:31 00:45:46 19° 298° (WNW) 00:49:03 435.000
YUBILEINY 26 Jun 00:43:15 00:52:06 80° 265° (W) 01:00:56 435.215
UNISAT 6 26 Jun 00:46:50 00:49:48 17° 299° (WNW) 00:52:47 437.425
UKube-1 26 Jun 00:48:09 00:51:50 27° 264° (W) 00:55:32 .
TISAT 1 26 Jun 00:50:35 00:54:42 62° 73° (ENE) 00:58:50 437.305
SPROUT 26 Jun 00:55:19 00:59:10 33° 264° (W) 01:03:02 437.525
DX 1 26 Jun 01:03:29 01:06:16 17° 269° (W) 01:09:05 434.975-435.025
SO-50 26 Jun 01:06:17 01:11:02 78° 53° (NE) 01:15:34 436.795
SWISSCUBE 26 Jun 01:27:45 01:32:09 37° 67° (ENE) 01:36:35 437.505
BUGSAT 1 26 Jun 01:32:15 01:36:12 50° 288° (WNW) 01:40:11 437.445
AO-85 26 Jun 01:32:19 01:35:03 14° 337° (NNW) 01:37:42 145.980
NANOSAT C BR1 26 Jun 01:37:47 01:41:06 23° 295° (WNW) 01:44:24 145.865
QB50P1 26 Jun 01:39:06 01:42:19 21° 296° (WNW) 01:45:32 145.935-145.965
POPSAT HIP 1 26 Jun 01:42:05 01:45:13 20° 296° (WNW) 01:48:21 437.405
JAS-2 26 Jun 01:43:45 01:49:42 82° 104° (ESE) 01:55:03 435.910
PCSat 26 Jun 01:44:36 01:47:25 14° 103° (ESE) 01:50:15 145.827
Cosmos 2504 26 Jun 01:48:30 01:57:29 89° 84° (E) 02:06:10 435.465 / 435.565
ITUPSAT 1 26 Jun 01:52:06 01:56:47 55° 71° (ENE) 02:01:30 437.325
BEESAT 26 Jun 01:53:03 01:57:44 57° 71° (ENE) 02:02:27 436.000
QB50P2 26 Jun 01:54:09 01:56:38 15° 299° (WNW) 01:59:07 145.880/145.840
Cosmos 2491 26 Jun 01:54:46 02:03:30 68° 282° (WNW) 02:12:15 435.465 / 435.565
Gurwin Techsat 1B 26 Jun 01:54:57 01:58:51 20° 91° (E) 02:02:44 435.225
POLYITAN 1 26 Jun 01:56:48 01:59:15 15° 299° (WNW) 02:01:42 437.675
DUCHIFAT 1 26 Jun 02:00:31 02:02:58 15° 299° (WNW) 02:05:25 145.980
Oscar 19 26 Jun 02:01:03 02:06:01 48° 100° (E) 02:10:57 437.125/150
ITAMSAT 1 26 Jun 02:19:21 02:21:14 12° 86° (E) 02:23:07 435.822/435.867
TISAT 1 26 Jun 02:28:44 02:30:46 13° 270° (W) 02:32:49 437.305
STARS 26 Jun 02:36:11 02:37:44 12° 57° (ENE) 02:39:17 437.465
YUBILEINY 26 Jun 02:42:03 02:47:26 18° 286° (WNW) 02:52:50 435.215
SO-50 26 Jun 02:48:13 02:50:52 15° 251° (WSW) 02:53:28 436.795
AO-7 26 Jun 02:49:03 02:52:59 14° 84° (E) 02:56:52 29.400- 29.500
MOZHAYETS 4 26 Jun 02:58:44 03:02:46 30° 66° (ENE) 03:06:50
SWISSCUBE 26 Jun 03:05:53 03:10:01 28° 265° (W) 03:14:11 437.505
BEESAT 3 26 Jun 03:09:41 03:13:09 31° 117° (ESE) 03:16:39 437.485
O/OREOS (USA 219) 26 Jun 03:16:45 03:21:03 45° 109° (ESE) 03:25:20 437.305
AIST 1 26 Jun 03:17:28 03:19:33 13° 65° (ENE) 03:21:37
PCSat 26 Jun 03:24:35 03:30:01 89° 124° (SE) 03:35:29 145.827
KKS-1 26 Jun 03:29:01 03:33:25 67° 73° (ENE) 03:37:50 437.445
JAS-2 26 Jun 03:30:09 03:33:56 18° 306° (NW) 03:37:31 435.910
ITUPSAT 1 26 Jun 03:31:33 03:34:58 19° 268° (W) 03:38:25 437.325
BEESAT 26 Jun 03:32:36 03:35:54 18° 269° (W) 03:39:13 436.000
Gurwin Techsat 1B 26 Jun 03:33:58 03:39:13 61° 289° (WNW) 03:44:27 435.225
Oscar 19 26 Jun 03:40:55 03:45:05 26° 298° (WNW) 03:49:15 437.125/150
BEESAT 2 26 Jun 03:41:33 03:45:13 37° 119° (ESE) 03:48:55 435.950
Cosmos 2504 26 Jun 03:43:20 03:49:41 23° 283° (WNW) 03:55:54 435.465 / 435.565
ITAMSAT 1 26 Jun 03:56:13 04:01:30 84° 102° (ESE) 04:06:44 435.822/435.867
Cosmos 2491 26 Jun 03:57:02 04:02:18 17° 307° (NW) 04:07:35 435.465 / 435.565
STARS 26 Jun 04:09:02 04:13:24 89° 77° (ENE) 04:17:48 437.465
CUBESAT XI-V 26 Jun 04:18:44 04:22:37 26° 65° (ENE) 04:26:29 437.345
MOZHAYETS 4 26 Jun 04:35:42 04:39:52 33° 264° (W) 04:44:04
AO-7 26 Jun 04:38:59 04:47:21 67° 105° (ESE) 04:55:40 29.400- 29.500
Cosmos 2499 26 Jun 04:40:48 04:47:29 23° 58° (ENE) 04:53:57 435.465 / 435.565
HORYU 2 26 Jun 04:43:38 04:46:37 17° 91° (E) 04:49:36 437.375
GONETS M04 26 Jun 04:43:58 04:51:37 33° 65° (ENE) 04:59:15
BEESAT 3 26 Jun 04:47:15 04:50:49 32° 316° (NW) 04:54:24 437.485
AIST 1 26 Jun 04:53:25 04:57:40 66° 264° (W) 05:01:52
O/OREOS (USA 219) 26 Jun 04:57:01 05:00:40 24° 308° (NW) 05:04:19 437.305
AO-85 26 Jun 04:57:18 05:00:21 16° 27° (NNE) 05:03:15 145.980
KKS-1 26 Jun 05:08:10 05:10:27 14° 271° (W) 05:12:45 437.445
PCSat 26 Jun 05:10:00 05:14:09 22° 323° (NW) 05:18:19 145.827
Gurwin Techsat 1B 26 Jun 05:16:53 05:18:07 11° 309° (NW) 05:19:22 435.225
BEESAT 2 26 Jun 05:19:40 05:23:08 28° 318° (NW) 05:26:38 435.950
ITAMSAT 1 26 Jun 05:37:06 05:40:19 17° 303° (WNW) 05:43:31 435.822/435.867
AIST 2 26 Jun 05:37:49 05:41:35 36° 118° (ESE) 05:45:23 435.215
Cubesat XI-IV 26 Jun 05:43:25 05:45:17 12° 86° (E) 05:47:08 437.490
CUBESAT XI-V 26 Jun 05:55:22 05:59:48 40° 263° (W) 06:04:16 437.345
STRAND 1 26 Jun 06:09:13 06:13:36 29° 63° (ENE) 06:17:59 437.568
CUTE-I 26 Jun 06:16:46 06:21:05 24° 93° (E) 06:25:22 437.470
HORYU 2 26 Jun 06:19:06 06:23:31 55° 289° (WNW) 06:27:55 437.375
GOMX 1 26 Jun 06:21:23 06:23:34 14° 90° (E) 06:25:45 467.674
AO-7 26 Jun 06:32:20 06:39:38 35° 306° (NW) 06:46:55 29.400- 29.500
Cosmos 2499 26 Jun 06:33:07 06:42:04 87° 83° (E) 06:50:31 435.465 / 435.565
AO-85 26 Jun 06:37:08 06:41:48 67° 50° (NE) 06:46:02 145.980
GONETS M04 26 Jun 06:40:29 06:49:04 65° 268° (W) 06:57:39
NOAA 18 26 Jun 06:53:03 06:58:28 51° 100° (E) 07:03:51 137.9125
NOAA 15 26 Jun 06:53:33 06:58:48 65° 102° (ESE) 07:04:00 137.62
PRISM 26 Jun 07:00:33 07:02:28 13° 59° (ENE) 07:04:24 437.425
BRITE-PL 26 Jun 07:10:33 07:14:46 83° 282° (WNW) 07:18:54 437.365/2234.400
AIST 2 26 Jun 07:16:26 07:20:07 31° 317° (NW) 07:23:51 435.215
LilacSat-2 26 Jun 07:20:43 07:24:36 83° 287° (WNW) 07:28:30 437.200
Cubesat XI-IV 26 Jun 07:20:46 07:26:12 81° 104° (ESE) 07:31:36 437.490
DANDE 26 Jun 07:29:44 07:36:41 30° 86° (E) 07:43:17 436.750
CUSAT 1 26 Jun 07:31:48 07:39:18 51° 95° (E) 07:45:45 437.405
DOVE 4 26 Jun 07:33:59 07:37:57 36° 98° (E) 07:42:03 437.250
CUTE 1.7 + AOD 2 26 Jun 07:38:38 07:39:56 11° 87° (E) 07:41:13 437.475
STRAND 1 26 Jun 07:47:44 07:52:36 42° 262° (W) 07:57:31 437.568
CUTE-I 26 Jun 07:56:13 08:01:27 53° 291° (WNW) 08:06:38 437.470
GOMX 1 26 Jun 07:57:58 08:02:04 59° 287° (WNW) 08:06:16 467.674
PHONESAT 2.4 26 Jun 08:17:32 08:19:03 13° 159° (SSE) 08:20:34 2401.200-2431.200
AO-85 26 Jun 08:18:54 08:21:37 16° 251° (WSW) 08:24:14 145.980
Cosmos 2499 26 Jun 08:27:39 08:34:01 23° 283° (WNW) 08:40:12 435.465 / 435.565
AO-7 26 Jun 08:28:23 08:29:55 11° 330° (NNW) 08:31:27 29.400- 29.500
PRISM 26 Jun 08:33:04 08:37:14 75° 256° (WSW) 08:41:24 437.425
AAUSAT CUBESAT 2 26 Jun 08:33:05 08:35:55 17° 91° (E) 08:38:43 437.432
NOAA 18 26 Jun 08:34:14 08:38:51 28° 299° (WNW) 08:43:28 137.9125
NOAA 15 26 Jun 08:34:16 08:38:06 21° 301° (WNW) 08:41:56 137.62
UNISAT 6 26 Jun 08:38:12 08:38:52 10° 56° (NE) 08:39:33 437.425
GONETS M04 26 Jun 08:40:26 08:44:03 13° 289° (WNW) 08:47:40
PCSat 26 Jun 08:45:29 08:46:01 10° 16° (NNE) 08:46:33 145.827
HO-68 26 Jun 08:48:02 08:55:09 58° 102° (ESE) 09:02:14 435.675
CINEMA 3 26 Jun 08:48:47 08:53:14 68° 101° (ESE) 08:57:53 145.822/145.860
CANX-2 26 Jun 08:51:27 08:55:47 73° 102° (ESE) 09:00:03 2200.000
Cubesat XI-IV 26 Jun 09:02:08 09:05:38 18° 303° (WNW) 09:09:08 437.490
COMPASS 1 26 Jun 09:03:40 09:07:43 44° 98° (E) 09:11:43 437.405
CUBEBUG 2 26 Jun 09:03:53 09:08:01 33° 96° (E) 09:12:14 437.445
DANDE 26 Jun 09:10:37 09:19:03 72° 283° (WNW) 09:26:53 436.750
CUTE 1.7 + AOD 2 26 Jun 09:12:01 09:16:20 78° 286° (WNW) 09:20:36 437.475
DOVE 4 26 Jun 09:12:07 09:15:31 24° 294° (WNW) 09:19:01 437.250
M-CUBED/EXP-1 PRIME 26 Jun 09:13:27 09:16:23 21° 101° (E) 09:19:30 437.505
CUSAT 1 26 Jun 09:14:26 09:21:31 38° 289° (WNW) 09:27:37 437.405
ANTELSAT 26 Jun 09:14:59 09:18:21 23° 64° (ENE) 09:21:48 437.575/2403.000
SEEDS 26 Jun 09:20:50 09:25:07 86° 286° (WNW) 09:29:21 437.485
ZACube-1 26 Jun 09:41:41 09:45:54 37° 97° (E) 09:50:09 437.345
BEESAT 3 26 Jun 09:47:50 09:49:07 11° 27° (NNE) 09:50:24 437.485
PHONESAT 2.4 26 Jun 09:52:30 09:55:05 24° 175° (S) 09:57:39 2401.200-2431.200
UWE-3 26 Jun 09:56:36 10:01:09 77° 101° (ESE) 10:05:48 435.000/436.395/437.385
Oscar 11 26 Jun 09:56:43 10:01:02 54° 100° (E) 10:05:18 145.826/435.025
FUNcube-1 26 Jun 10:00:36 10:05:02 54° 100° (E) 10:09:31 145.935
RS-15 26 Jun 10:03:36 10:05:44 11° 89° (E) 10:07:54 29.354- 29.394
Cosmos 2491 26 Jun 10:06:02 10:11:34 18° 54° (NE) 10:17:03 435.465 / 435.565
TIGRISAT 26 Jun 10:06:17 10:10:32 68° 74° (ENE) 10:14:55 435.000
AAUSAT CUBESAT 2 26 Jun 10:07:38 10:11:40 47° 289° (WNW) 10:15:40 437.432
AUBIESAT-1 26 Jun 10:10:09 10:13:58 73° 108° (ESE) 10:18:03 437.475
UNISAT 6 26 Jun 10:10:30 10:14:48 79° 74° (ENE) 10:19:12 437.425
JAS-2 26 Jun 10:17:03 10:20:13 13° 49° (NE) 10:23:17 435.910
BEESAT 2 26 Jun 10:20:10 10:22:00 13° 29° (NNE) 10:23:49 435.950
PCSat 26 Jun 10:26:46 10:31:24 28° 41° (NE) 10:36:01 145.827
ISS 26 Jun 10:27:01 10:30:14 59° 149° (SSE) 10:33:28 145.825
CINEMA 3 26 Jun 10:27:16 10:29:56 16° 299° (WNW) 10:32:39 145.822/145.860
CANX-2 26 Jun 10:28:53 10:31:04 14° 300° (WNW) 10:33:15 2200.000
HO-68 26 Jun 10:36:16 10:42:33 34° 302° (WNW) 10:48:49 435.675
COMPASS 1 26 Jun 10:39:55 10:42:59 20° 296° (WNW) 10:46:02 437.405
DELFI C3 26 Jun 10:40:35 10:44:37 77° 101° (E) 10:48:36 145.870
CUBEBUG 2 26 Jun 10:40:37 10:44:35 30° 293° (WNW) 10:48:37 437.445
M-CUBED/EXP-1 PRIME 26 Jun 10:47:34 10:51:01 36° 295° (WNW) 10:54:43 437.505
ANTELSAT 26 Jun 10:50:47 10:54:50 40° 262° (W) 10:59:00 437.575/2403.000
BUGSAT 1 26 Jun 10:50:49 10:53:25 17° 62° (ENE) 10:56:01 437.445
NANOSAT C BR1 26 Jun 10:56:18 11:00:13 41° 70° (ENE) 11:04:11 145.865
DANDE 26 Jun 10:57:26 11:03:06 19° 302° (WNW) 11:08:26 436.750
QB50P1 26 Jun 10:57:44 11:01:43 45° 71° (ENE) 11:05:45 145.935-145.965
SEEDS 26 Jun 10:59:06 11:00:06 11° 302° (WNW) 11:01:05 437.485
POPSAT HIP 1 26 Jun 11:00:40 11:04:41 47° 71° (ENE) 11:08:44 437.405
QB50P2 26 Jun 11:12:10 11:16:20 68° 73° (ENE) 11:20:31 145.880/145.840
POLYITAN 1 26 Jun 11:14:47 11:18:57 69° 73° (ENE) 11:23:08 437.675
HUMSAT D 26 Jun 11:17:00 11:21:21 88° 109° (ESE) 11:25:40 437.325/437.525
DUCHIFAT 1 26 Jun 11:17:54 11:22:01 66° 74° (ENE) 11:26:11 145.980
ZACube-1 26 Jun 11:18:17 11:22:02 27° 294° (WNW) 11:25:51 437.345
BEESAT 3 26 Jun 11:23:53 11:27:45 49° 48° (NE) 11:31:35 437.485
PHONESAT 2.4 26 Jun 11:28:49 11:31:13 21° 192° (SSW) 11:33:37 2401.200-2431.200
Oscar 11 26 Jun 11:33:49 11:36:46 18° 298° (WNW) 11:39:43 145.826/435.025
UWE-3 26 Jun 11:34:35 11:37:03 15° 300° (WNW) 11:39:34 435.000/436.395/437.385
CUBEBUG 1 26 Jun 11:36:48 11:39:51 19° 92° (E) 11:42:53 437.445
FUNcube-1 26 Jun 11:37:43 11:40:54 19° 297° (WNW) 11:44:08 145.935
VELOX 1 26 Jun 11:38:16 11:41:16 18° 92° (E) 11:44:15 145.980
Oscar 19 26 Jun 11:44:18 11:47:10 15° 56° (ENE) 11:50:04 437.125/150
O/OREOS (USA 219) 26 Jun 11:45:03 11:48:25 20° 50° (NE) 11:51:46 437.305
TIGRISAT 26 Jun 11:45:43 11:47:46 13° 272° (W) 11:49:48 435.000
AUBIESAT-1 26 Jun 11:46:18 11:48:03 13° 304° (NW) 11:49:53 437.475
UNISAT 6 26 Jun 11:50:51 11:52:08 11° 273° (W) 11:53:25 437.425
YUBILEINY 26 Jun 11:53:19 12:00:00 26° 79° (E) 12:06:42 435.215
JAS-2 26 Jun 11:56:35 12:03:59 55° 69° (ENE) 12:10:45 435.910
BEESAT 2 26 Jun 11:56:42 12:00:40 59° 50° (NE) 12:04:37 435.950
50 SAT 26 Jun 12:00:09 12:03:28 30° 97° (E) 12:06:44 437.505
Cosmos 2491 26 Jun 12:01:30 12:10:14 72° 78° (ENE) 12:18:56 435.465 / 435.565
ESTCUBE 1 26 Jun 12:03:29 12:07:53 50° 100° (E) 12:12:14 437.505/2401.250
ISS 26 Jun 12:03:41 12:06:48 40° 347° (NNW) 12:09:55 145.825
RS-15 26 Jun 12:04:04 12:14:56 53° 113° (ESE) 12:26:23 29.354- 29.394
PCSat 26 Jun 12:09:50 12:15:13 63° 242° (WSW) 12:20:33 145.827
DELFI C3 26 Jun 12:17:25 12:18:54 12° 300° (WNW) 12:20:22 145.870
AISAT 26 Jun 12:17:55 12:22:10 46° 99° (E) 12:26:23 437.250
AIST 2 26 Jun 12:18:52 12:20:59 13° 29° (NNE) 12:23:06 435.215
BUGSAT 1 26 Jun 12:24:33 12:28:27 49° 260° (W) 12:32:22 437.445
UKube-1 26 Jun 12:31:38 12:35:41 38° 98° (E) 12:39:42 .
NANOSAT C BR1 26 Jun 12:33:04 12:36:09 20° 267° (W) 12:39:16 145.865
QB50P1 26 Jun 12:34:49 12:37:45 18° 268° (W) 12:40:42 145.935-145.965
POPSAT HIP 1 26 Jun 12:37:55 12:40:44 17° 269° (W) 12:43:35 437.405
SPROUT 26 Jun 12:38:01 12:41:53 32° 96° (E) 12:45:45 437.525
Cosmos 2504 26 Jun 12:41:26 12:45:37 15° 71° (ENE) 12:49:54 435.465 / 435.565
DX 1 26 Jun 12:46:43 12:51:03 68° 103° (ESE) 12:55:22 434.975-435.025
QB50P2 26 Jun 12:50:47 12:52:36 12° 271° (W) 12:54:26 145.880/145.840
POLYITAN 1 26 Jun 12:53:32 12:55:14 12° 272° (W) 12:56:56 437.675
HUMSAT D 26 Jun 12:54:43 12:56:19 12° 302° (WNW) 12:57:54 437.325/437.525
DUCHIFAT 1 26 Jun 12:56:20 12:58:11 13° 271° (W) 13:00:02 145.980
BEESAT 3 26 Jun 13:02:16 13:05:07 19° 247° (WSW) 13:07:58 437.485
CUBEBUG 1 26 Jun 13:12:15 13:16:23 47° 290° (WNW) 13:20:32 437.445
VELOX 1 26 Jun 13:13:47 13:18:03 51° 289° (WNW) 13:22:17 145.980
Gurwin Techsat 1B 26 Jun 13:18:28 13:23:26 42° 67° (ENE) 13:28:26 435.225
Oscar 19 26 Jun 13:20:38 13:25:48 89° 256° (WSW) 13:30:59 437.125/150
O/OREOS (USA 219) 26 Jun 13:23:47 13:28:11 56° 250° (WSW) 13:32:33 437.305
50 SAT 26 Jun 13:34:06 13:37:01 22° 294° (WNW) 13:39:54 437.505
BEESAT 2 26 Jun 13:35:35 13:38:06 16° 248° (WSW) 13:40:36 435.950
ITAMSAT 1 26 Jun 13:38:55 13:43:11 26° 62° (ENE) 13:47:29 435.822/435.867
ISS 26 Jun 13:40:39 13:43:43 35° 8° (N) 13:46:46 145.825
ESTCUBE 1 26 Jun 13:41:03 13:44:22 20° 298° (WNW) 13:47:39 437.505/2401.250
JAS-2 26 Jun 13:42:17 13:49:11 35° 265° (W) 13:55:36 435.910
YUBILEINY 26 Jun 13:47:08 13:55:51 77° 281° (W) 14:04:41 435.215
AO-7 26 Jun 13:50:14 13:57:10 31° 52° (NE) 14:04:08 29.400- 29.500
ITUPSAT 1 26 Jun 13:52:05 13:53:33 11° 87° (E) 13:55:01 437.325
BEESAT 26 Jun 13:52:29 13:54:08 12° 87° (E) 13:55:48 436.000
AISAT 26 Jun 13:55:04 13:58:21 21° 297° (WNW) 14:01:38 437.250
AIST 2 26 Jun 13:56:11 14:00:19 60° 50° (NE) 14:04:26 435.215
Cosmos 2491 26 Jun 13:59:20 14:06:17 28° 280° (W) 14:13:13 435.465 / 435.565
TISAT 1 26 Jun 14:07:00 14:11:13 76° 103° (ESE) 14:15:26 437.305
UKube-1 26 Jun 14:08:06 14:11:33 24° 296° (WNW) 14:14:59 .
SPROUT 26 Jun 14:14:08 14:17:44 27° 294° (WNW) 14:21:20 437.525
RS-15 26 Jun 14:15:58 14:27:23 59° 319° (NW) 14:39:28 29.354- 29.394
DX 1 26 Jun 14:24:16 14:26:44 15° 301° (WNW) 14:29:11 434.975-435.025
Cosmos 2504 26 Jun 14:29:12 14:37:13 70° 93° (E) 14:45:51 435.465 / 435.565
Gurwin Techsat 1B 26 Jun 14:58:55 15:03:31 29° 265° (W) 15:08:09 435.225
SWISSCUBE 26 Jun 15:02:13 15:06:59 59° 101° (E) 15:11:42 437.505
Oscar 19 26 Jun 15:03:44 15:05:51 12° 273° (W) 15:07:59 437.125/150
ISS 26 Jun 15:17:08 15:20:25 86° 209° (SSW) 15:23:41 145.825
ITAMSAT 1 26 Jun 15:17:20 15:22:23 49° 260° (W) 15:27:29 435.822/435.867
KKS-1 26 Jun 15:20:10 15:20:39 10° 87° (E) 15:21:09 437.445
SO-50 26 Jun 15:25:29 15:27:44 13° 108° (ESE) 15:29:59 436.795
ITUPSAT 1 26 Jun 15:27:14 15:32:06 89° 109° (ESE) 15:36:54 437.325
BEESAT 26 Jun 15:27:46 15:32:36 89° 296° (WNW) 15:37:24 436.000
AIST 2 26 Jun 15:35:40 15:38:22 17° 248° (WSW) 15:41:05 435.215
AO-7 26 Jun 15:40:54 15:49:14 77° 253° (WSW) 15:57:39 29.400- 29.500
HORYU 2 26 Jun 15:44:15 15:47:45 23° 63° (ENE) 15:51:17 437.375
TISAT 1 26 Jun 15:44:23 15:46:19 13° 301° (WNW) 15:48:14 437.305
YUBILEINY 26 Jun 15:48:27 15:54:20 19° 305° (NW) 16:00:18 435.215
STARS 26 Jun 15:57:10 15:59:16 13° 89° (E) 16:01:22 437.465
Cosmos 2504 26 Jun 16:24:25 16:31:26 30° 297° (WNW) 16:38:52 435.465 / 435.565
MOZHAYETS 4 26 Jun 16:27:13 16:31:43 47° 99° (E) 16:36:10
RS-15 26 Jun 16:32:33 16:43:04 34° 351° (N) 16:53:56 29.354- 29.394
NOAA 15 26 Jun 16:38:31 16:42:30 22° 60° (ENE) 16:46:28 137.62
SWISSCUBE 26 Jun 16:40:55 16:44:22 20° 299° (WNW) 16:47:47 437.505
NOAA 18 26 Jun 16:43:43 16:47:45 21° 58° (ENE) 16:51:47 137.9125
BRITE-PL 26 Jun 16:46:49 16:50:27 21° 64° (ENE) 16:53:53 437.365/2234.400
KKS-1 26 Jun 16:53:24 16:57:52 89° 295° (WNW) 17:02:20 437.445
ISS 26 Jun 16:54:27 16:56:27 15° 225° (SW) 16:58:26 145.825
SO-50 26 Jun 17:02:36 17:07:30 86° 127° (SE) 17:12:24 436.795
ITUPSAT 1 26 Jun 17:06:48 17:09:14 14° 303° (WNW) 17:11:40 437.325
Cubesat XI-IV 26 Jun 17:06:56 17:11:23 27° 62° (ENE) 17:15:51 437.490
BEESAT 26 Jun 17:07:22 17:09:41 14° 304° (WNW) 17:11:59 436.000
HORYU 2 26 Jun 17:19:54 17:24:05 41° 261° (W) 17:28:19 437.375
Cosmos 2499 26 Jun 17:24:39 17:28:38 14° 71° (ENE) 17:32:42 435.465 / 435.565
AIST 1 26 Jun 17:25:13 17:29:29 61° 96° (E) 17:33:45
STARS 26 Jun 17:31:44 17:36:07 70° 287° (WNW) 17:40:29 437.465
GOMX 1 26 Jun 17:31:49 17:35:26 23° 66° (ENE) 17:38:53 467.674
HO-68 26 Jun 17:36:28 17:40:00 14° 45° (NE) 17:43:31 435.675
AO-7 26 Jun 17:38:21 17:43:22 17° 273° (W) 17:48:27 29.400- 29.500
CUTE-I 26 Jun 17:41:07 17:46:16 51° 69° (ENE) 17:51:28 437.470
CUBESAT XI-V 26 Jun 17:48:47 17:53:10 40° 97° (E) 17:57:30 437.345
GONETS M04 26 Jun 17:49:34 17:56:57 32° 82° (E) 18:04:19
MOZHAYETS 4 26 Jun 18:05:00 18:08:35 23° 297° (WNW) 18:12:10
LilacSat-2 26 Jun 18:05:10 18:08:54 71° 76° (ENE) 18:12:43 437.200
CUSAT 1 26 Jun 18:06:09 18:09:40 25° 65° (ENE) 18:12:31 437.405
DANDE 26 Jun 18:08:16 18:11:56 17° 55° (NE) 18:15:01 436.750
NOAA 15 26 Jun 18:16:36 18:21:50 62° 258° (WSW) 18:27:06 137.62
NOAA 18 26 Jun 18:22:28 18:27:54 68° 257° (WSW) 18:33:24 137.9125
BRITE-PL 26 Jun 18:23:37 18:28:38 56° 260° (W) 18:33:18 437.365/2234.400
KKS-1 26 Jun 18:32:02 18:33:45 12° 303° (WNW) 18:35:30 437.445
CUTE 1.7 + AOD 2 26 Jun 18:34:04 18:36:02 13° 59° (ENE) 18:38:00 437.475
DOVE 4 26 Jun 18:42:20 18:46:32 51° 72° (ENE) 18:50:36 437.250
SEEDS 26 Jun 18:42:36 18:44:04 12° 58° (ENE) 18:45:31 437.485
SO-50 26 Jun 18:44:49 18:48:37 22° 326° (NNW) 18:52:23 436.795
Cubesat XI-IV 26 Jun 18:46:02 18:51:11 49° 260° (W) 18:56:25 437.490
RS-15 26 Jun 18:48:27 18:59:47 41° 25° (NNE) 19:11:14 29.354- 29.394
AIST 1 26 Jun 19:05:06 19:07:31 15° 294° (WNW) 19:09:59
GOMX 1 26 Jun 19:08:58 19:13:22 41° 262° (W) 19:17:32 467.674
Cosmos 2499 26 Jun 19:11:43 19:19:53 66° 93° (E) 19:28:36 435.465 / 435.565
HO-68 26 Jun 19:19:18 19:26:15 58° 66° (ENE) 19:33:16 435.675
CUTE-I 26 Jun 19:22:15 19:26:35 25° 267° (W) 19:30:58 437.470
UWE-3 26 Jun 19:23:56 19:24:47 11° 57° (ENE) 19:25:37 435.000/436.395/437.385
AAUSAT CUBESAT 2 26 Jun 19:26:15 19:29:08 18° 63° (ENE) 19:32:00 437.432
CUBESAT XI-V 26 Jun 19:26:35 19:30:22 25° 296° (WNW) 19:34:07 437.345
AUBIESAT-1 26 Jun 19:27:15 19:28:49 13° 56° (ENE) 19:30:25 437.475
GONETS M04 26 Jun 19:44:37 19:53:13 63° 284° (WNW) 20:01:51
CANX-2 26 Jun 19:46:33 19:50:50 73° 75° (ENE) 19:55:09 2200.000
CUSAT 1 26 Jun 19:48:33 19:51:34 20° 274° (W) 19:54:05 437.405
DANDE 26 Jun 19:50:13 19:55:44 64° 264° (W) 19:59:48 436.750
CINEMA 3 26 Jun 19:53:25 19:57:34 84° 76° (ENE) 20:01:45 145.822/145.860
STRAND 1 26 Jun 19:54:55 20:00:00 52° 100° (E) 20:05:00 437.568
COMPASS 1 26 Jun 19:56:52 20:00:51 43° 71° (ENE) 20:04:53 437.405
M-CUBED/EXP-1 PRIME 26 Jun 20:03:03 20:06:05 37° 65° (ENE) 20:09:10 437.505
CUBEBUG 2 26 Jun 20:04:58 20:08:46 35° 68° (ENE) 20:12:40 437.445
CUTE 1.7 + AOD 2 26 Jun 20:07:00 20:11:16 79° 258° (WSW) 20:15:36 437.475
PRISM 26 Jun 20:13:47 20:15:19 12° 89° (E) 20:16:51 437.425
SEEDS 26 Jun 20:14:50 20:19:06 88° 262° (W) 20:23:23 437.485
DOVE 4 26 Jun 20:21:48 20:24:33 16° 269° (W) 20:27:14 437.250
HUMSAT D 26 Jun 20:38:58 20:39:56 11° 57° (ENE) 20:40:53 437.325/437.525
ZACube-1 26 Jun 20:40:16 20:44:11 39° 69° (ENE) 20:48:12 437.345
Oscar 11 26 Jun 20:53:53 20:58:09 59° 72° (ENE) 21:02:27 145.826/435.025
AO-85 26 Jun 20:55:50 20:58:27 14° 107° (ESE) 21:01:02 145.980
UWE-3 26 Jun 20:56:19 21:00:29 85° 79° (E) 21:04:48 435.000/436.395/437.385
FUNcube-1 26 Jun 20:58:46 21:02:52 57° 73° (ENE) 21:07:06 145.935
AUBIESAT-1 26 Jun 20:59:48 21:02:59 47° 254° (WSW) 21:06:14 437.475
AAUSAT CUBESAT 2 26 Jun 21:00:11 21:04:15 50° 261° (W) 21:08:23 437.432
RS-15 26 Jun 21:01:44 21:14:09 87° 54° (NE) 21:26:29 29.354- 29.394
Cosmos 2499 26 Jun 21:06:21 21:13:43 33° 296° (WNW) 21:21:28 435.465 / 435.565
HO-68 26 Jun 21:08:04 21:14:19 32° 266° (W) 21:20:38 435.675
CANX-2 26 Jun 21:25:31 21:27:12 12° 272° (W) 21:28:54 2200.000
DELFI C3 26 Jun 21:28:50 21:32:49 64° 74° (ENE) 21:36:51 145.870
COMPASS 1 26 Jun 21:33:33 21:36:38 19° 268° (W) 21:39:43 437.405
STRAND 1 26 Jun 21:34:45 21:38:51 24° 299° (WNW) 21:42:55 437.568
M-CUBED/EXP-1 PRIME 26 Jun 21:39:14 21:40:54 13° 262° (W) 21:42:35 437.505
CUBEBUG 2 26 Jun 21:42:11 21:45:31 23° 267° (W) 21:48:55 437.445
PRISM 26 Jun 21:47:01 21:51:07 68° 287° (WNW) 21:55:09 437.425
GONETS M04 26 Jun 21:47:31 21:52:12 15° 309° (NW) 21:56:53
TIGRISAT 26 Jun 21:56:31 21:58:28 12° 88° (E) 22:00:27 435.000
YUBILEINY 26 Jun 21:58:37 22:03:32 16° 51° (NE) 22:08:27 435.215
UNISAT 6 26 Jun 22:00:26 22:03:02 15° 89° (E) 22:05:36 437.425
HUMSAT D 26 Jun 22:10:40 22:14:50 86° 72° (ENE) 22:19:06 437.325/437.525
DX 1 26 Jun 22:12:17 22:13:32 11° 56° (ENE) 22:14:46 434.975-435.025
SO-50 26 Jun 22:12:20 22:13:42 11° 16° (NNE) 22:15:03 436.795
ZACube-1 26 Jun 22:17:24 22:20:39 21° 268° (W) 22:23:57 437.345
Oscar 11 26 Jun 22:32:08 22:34:41 15° 271° (W) 22:37:13 145.826/435.025
AO-85 26 Jun 22:32:49 22:38:14 80° 124° (SE) 22:43:28 145.980
CUBEBUG 1 26 Jun 22:35:25 22:38:51 23° 64° (ENE) 22:42:17 437.445
FUNcube-1 26 Jun 22:37:07 22:39:33 15° 271° (W) 22:41:59 145.935
VELOX 1 26 Jun 22:38:10 22:41:41 24° 64° (ENE) 22:45:11 145.980
ANTELSAT 26 Jun 22:39:06 22:43:19 34° 96° (E) 22:47:34 437.575/2403.000
50 SAT 26 Jun 22:41:00 22:43:55 22° 66° (ENE) 22:46:52 437.505
ESTCUBE 1 26 Jun 23:05:25 23:09:54 65° 73° (ENE) 23:14:25 437.505/2401.250
DELFI C3 26 Jun 23:06:24 23:08:07 12° 271° (W) 23:09:49 145.870
Cosmos 2491 26 Jun 23:14:18 23:19:08 16° 73° (ENE) 23:23:57 435.465 / 435.565
RS-15 26 Jun 23:15:16 23:25:17 31° 257° (WSW) 23:35:15 29.354- 29.394
AISAT 26 Jun 23:17:46 23:22:06 58° 72° (ENE) 23:26:26 437.250
UKube-1 26 Jun 23:28:39 23:32:46 47° 70° (ENE) 23:36:56 .
TIGRISAT 26 Jun 23:31:05 23:35:43 81° 286° (WNW) 23:40:24 435.000
SPROUT 26 Jun 23:34:12 23:38:05 36° 68° (ENE) 23:41:58 437.525
UNISAT 6 26 Jun 23:35:35 23:40:12 70° 286° (WNW) 23:44:51 437.425
DX 1 26 Jun 23:44:40 23:49:01 84° 72° (ENE) 23:53:23 434.975-435.025
SO-50 26 Jun 23:51:33 23:55:44 30° 39° (NE) 23:59:48 436.795
YUBILEINY 26 Jun 23:53:42 00:02:29 63° 76° (ENE) 00:11:14 435.215
BUGSAT 1 27 Jun 00:03:59 00:06:51 18° 92° (E) 00:09:44 437.445
CUBEBUG 1 27 Jun 00:10:49 00:14:56 40° 262° (W) 00:19:03 437.445
NANOSAT C BR1 27 Jun 00:13:07 00:17:16 52° 100° (E) 00:21:25 145.865
VELOX 1 27 Jun 00:13:47 00:17:56 40° 262° (W) 00:22:07 145.980
50 SAT 27 Jun 00:14:10 00:17:28 30° 264° (W) 00:20:48 437.505
AO-85 27 Jun 00:14:54 00:19:17 25° 324° (NW) 00:23:29 145.980
QB50P1 27 Jun 00:14:57 00:19:10 57° 101° (E) 00:23:21 145.935-145.965
ANTELSAT 27 Jun 00:15:55 00:19:57 30° 293° (WNW) 00:24:01 437.575/2403.000
POPSAT HIP 1 27 Jun 00:17:58 00:22:12 60° 101° (E) 00:26:25 437.405
Cosmos 2504 27 Jun 00:18:23 00:26:18 34° 65° (ENE) 00:34:00 435.465 / 435.565
